Wetterdaten: Donnerstag, 18.06.2015
Datum Zeit Auen-Temp. Temp gefhlt Luftfeuchte Luftdruck Regen Wind Richtung Richtung Taupunkt Windben
18.06.2015 00:00 10,9 C 10,7 C 84 % 1022,6 hPa 0,0 mm 0,0 km/h (0 Bft) SO 135 8,3 C 0,0 km/h (0 Bft)
18.06.2015 00:05 10,8 C 10,6 C 84 % 1022,6 hPa 0,0 mm 0,0 km/h (0 Bft) S 180 8,2 C 0,0 km/h (0 Bft)
18.06.2015 00:10 10,4 C 10,2 C 84 % 1022,6 hPa 0,0 mm 0,0 km/h (0 Bft) S 180 7,8 C 0,0 km/h (0 Bft)
18.06.2015 00:15 10,3 C 10,1 C 84 % 1022,6 hPa 0,0 mm 0,3 km/h (0 Bft) S 180 7,7 C 0,0 km/h (0 Bft)
18.06.2015 00:20 10,2 C 10,0 C 84 % 1022,6 hPa 0,0 mm 0,3 km/h (0 Bft) SW 225 7,6 C 0,0 km/h (0 Bft)
18.06.2015 00:25 10,2 C 10,0 C 84 % 1022,6 hPa 0,0 mm 0,3 km/h (0 Bft) S 180 7,6 C 0,0 km/h (0 Bft)
18.06.2015 00:30 10,3 C 10,1 C 84 % 1022,6 hPa 0,0 mm 1,6 km/h (1 Bft) S 180 7,7 C 6,2 km/h (2 Bft)
18.06.2015 00:35 10,3 C 10,1 C 84 % 1022,4 hPa 0,0 mm 1,3 km/h (1 Bft) S 180 7,7 C 3,9 km/h (1 Bft)
18.06.2015 00:40 10,4 C 10,2 C 85 % 1022,4 hPa 0,0 mm 0,8 km/h (0 Bft) S 180 8,0 C 0,0 km/h (0 Bft)
18.06.2015 00:45 10,6 C 10,4 C 85 % 1022,4 hPa 0,0 mm 0,8 km/h (0 Bft) S 180 8,2 C 0,0 km/h (0 Bft)
18.06.2015 00:50 10,6 C 10,4 C 85 % 1022,4 hPa 0,0 mm 0,0 km/h (0 Bft) S 180 8,2 C 0,0 km/h (0 Bft)
18.06.2015 00:55 10,6 C 10,4 C 85 % 1022,2 hPa 0,0 mm 0,0 km/h (0 Bft) S 180 8,2 C 0,0 km/h (0 Bft)
18.06.2015 01:00 10,5 C 10,3 C 85 % 1022,2 hPa 0,0 mm 0,0 km/h (0 Bft) S 180 8,1 C 0,0 km/h (0 Bft)
18.06.2015 01:05 10,4 C 10,2 C 85 % 1022,2 hPa 0,0 mm 0,0 km/h (0 Bft) S 180 8,0 C 0,0 km/h (0 Bft)
18.06.2015 01:10 10,1 C 9,9 C 85 % 1022,2 hPa 0,0 mm 0,0 km/h (0 Bft) S 180 7,7 C 0,0 km/h (0 Bft)
18.06.2015 01:15 10,2 C 9,9 C 85 % 1022,1 hPa 0,0 mm 0,0 km/h (0 Bft) S 180 7,8 C 0,0 km/h (0 Bft)
18.06.2015 01:20 10,0 C 9,7 C 85 % 1022,1 hPa 0,0 mm 0,0 km/h (0 Bft) S 180 7,6 C 0,0 km/h (0 Bft)
18.06.2015 01:25 9,8 C 9,6 C 85 % 1022,1 hPa 0,0 mm 0,0 km/h (0 Bft) S 180 7,4 C 0,0 km/h (0 Bft)
18.06.2015 01:30 9,7 C 9,4 C 85 % 1022,1 hPa 0,0 mm 0,0 km/h (0 Bft) S 180 7,3 C 0,0 km/h (0 Bft)
18.06.2015 01:35 9,6 C 9,3 C 85 % 1022,0 hPa 0,0 mm 0,0 km/h (0 Bft) S 180 7,2 C 0,0 km/h (0 Bft)
18.06.2015 01:40 9,4 C 9,2 C 85 % 1022,0 hPa 0,0 mm 0,0 km/h (0 Bft) S 180 7,0 C 0,0 km/h (0 Bft)
18.06.2015 01:45 9,4 C 9,2 C 85 % 1022,0 hPa 0,0 mm 0,0 km/h (0 Bft) S 180 7,0 C 0,0 km/h (0 Bft)
18.06.2015 01:50 9,4 C 9,2 C 86 % 1022,0 hPa 0,0 mm 0,0 km/h (0 Bft) S 180 7,2 C 0,0 km/h (0 Bft)
18.06.2015 01:55 9,4 C 9,1 C 86 % 1021,9 hPa 0,0 mm 0,0 km/h (0 Bft) W 270 7,2 C 2,6 km/h (1 Bft)
18.06.2015 02:00 9,5 C 9,2 C 86 % 1021,9 hPa 0,0 mm 0,3 km/h (0 Bft) S-SW 202 7,3 C 0,0 km/h (0 Bft)
18.06.2015 02:05 9,4 C 9,2 C 86 % 1021,9 hPa 0,0 mm 0,0 km/h (0 Bft) N-NW 337 7,2 C 0,0 km/h (0 Bft)
18.06.2015 02:10 9,4 C 9,2 C 86 % 1021,9 hPa 0,0 mm 0,0 km/h (0 Bft) N-NW 337 7,2 C 0,0 km/h (0 Bft)
18.06.2015 02:15 9,4 C 9,2 C 86 % 1021,9 hPa 0,0 mm 0,0 km/h (0 Bft) N-NW 337 7,2 C 0,0 km/h (0 Bft)
18.06.2015 02:20 9,6 C 9,3 C 87 % 1021,9 hPa 0,0 mm 0,0 km/h (0 Bft) N-NO 22 7,5 C 0,0 km/h (0 Bft)
18.06.2015 02:25 9,6 C 9,3 C 87 % 1021,9 hPa 0,0 mm 0,0 km/h (0 Bft) N-NO 22 7,5 C 0,0 km/h (0 Bft)
18.06.2015 02:30 9,7 C 9,4 C 87 % 1021,9 hPa 0,0 mm 0,0 km/h (0 Bft) N-NO 22 7,6 C 0,0 km/h (0 Bft)
18.06.2015 02:35 9,7 C 9,4 C 87 % 1021,8 hPa 0,0 mm 0,0 km/h (0 Bft) N-NO 22 7,6 C 0,0 km/h (0 Bft)
18.06.2015 02:40 9,4 C 9,2 C 87 % 1021,8 hPa 0,0 mm 0,0 km/h (0 Bft) N-NO 22 7,3 C 0,0 km/h (0 Bft)
18.06.2015 02:45 9,3 C 9,1 C 87 % 1021,8 hPa 0,0 mm 0,0 km/h (0 Bft) N-NO 22 7,2 C 0,0 km/h (0 Bft)
18.06.2015 02:50 9,3 C 9,1 C 87 % 1021,8 hPa 0,0 mm 0,0 km/h (0 Bft) N-NO 22 7,2 C 0,0 km/h (0 Bft)
18.06.2015 02:55 9,3 C 9,1 C 87 % 1021,7 hPa 0,0 mm 0,0 km/h (0 Bft) SW 225 7,2 C 0,0 km/h (0 Bft)
18.06.2015 03:00 9,1 C 8,9 C 87 % 1021,7 hPa 0,0 mm 0,0 km/h (0 Bft) N 360 7,1 C 0,0 km/h (0 Bft)
18.06.2015 03:05 9,1 C 8,9 C 87 % 1021,7 hPa 0,0 mm 0,0 km/h (0 Bft) N-NO 22 7,1 C 0,0 km/h (0 Bft)
18.06.2015 03:10 8,9 C 8,7 C 88 % 1021,7 hPa 0,0 mm 0,0 km/h (0 Bft) N 360 7,0 C 0,0 km/h (0 Bft)
18.06.2015 03:15 9,0 C 8,7 C 87 % 1021,6 hPa 0,0 mm 0,0 km/h (0 Bft) SW 225 7,0 C 0,0 km/h (0 Bft)
18.06.2015 03:20 8,8 C 8,6 C 88 % 1021,6 hPa 0,0 mm 0,3 km/h (0 Bft) N-NW 337 6,9 C 0,0 km/h (0 Bft)
18.06.2015 03:25 8,9 C 8,7 C 88 % 1021,6 hPa 0,0 mm 0,3 km/h (0 Bft) W-SW 247 7,0 C 0,0 km/h (0 Bft)
18.06.2015 03:30 8,9 C 8,7 C 88 % 1021,6 hPa 0,0 mm 0,0 km/h (0 Bft) W-SW 247 7,0 C 0,0 km/h (0 Bft)
18.06.2015 03:35 9,0 C 8,7 C 88 % 1021,4 hPa 0,0 mm 0,3 km/h (0 Bft) SW 225 7,1 C 0,0 km/h (0 Bft)
18.06.2015 03:40 8,9 C 8,7 C 88 % 1021,4 hPa 0,0 mm 0,3 km/h (0 Bft) S-SW 202 7,0 C 0,0 km/h (0 Bft)
18.06.2015 03:45 8,8 C 8,6 C 88 % 1021,4 hPa 0,0 mm 0,3 km/h (0 Bft) S 180 6,9 C 0,0 km/h (0 Bft)
18.06.2015 03:50 8,6 C 8,4 C 88 % 1021,4 hPa 0,0 mm 0,0 km/h (0 Bft) W 270 6,7 C 0,0 km/h (0 Bft)
18.06.2015 03:55 8,6 C 8,4 C 88 % 1021,2 hPa 0,0 mm 0,0 km/h (0 Bft) N-NW 337 6,7 C 0,0 km/h (0 Bft)
18.06.2015 04:00 8,6 C 8,4 C 88 % 1021,2 hPa 0,0 mm 0,0 km/h (0 Bft) N-NW 337 6,7 C 0,0 km/h (0 Bft)
18.06.2015 04:05 8,8 C 8,5 C 89 % 1021,2 hPa 0,0 mm 0,0 km/h (0 Bft) N-NW 337 7,1 C 0,0 km/h (0 Bft)
18.06.2015 04:10 8,4 C 8,2 C 89 % 1021,2 hPa 0,0 mm 0,0 km/h (0 Bft) NW 315 6,7 C 0,0 km/h (0 Bft)
18.06.2015 04:15 8,3 C 8,1 C 89 % 1020,9 hPa 0,0 mm 0,0 km/h (0 Bft) NW 315 6,6 C 0,0 km/h (0 Bft)
18.06.2015 04:20 8,4 C 8,2 C 89 % 1020,9 hPa 0,0 mm 0,0 km/h (0 Bft) NW 315 6,7 C 0,0 km/h (0 Bft)
18.06.2015 04:25 8,3 C 8,1 C 88 % 1020,9 hPa 0,0 mm 0,0 km/h (0 Bft) NW 315 6,4 C 0,0 km/h (0 Bft)
18.06.2015 04:30 8,3 C 8,1 C 88 % 1020,9 hPa 0,0 mm 0,0 km/h (0 Bft) N-NW 337 6,4 C 0,0 km/h (0 Bft)
18.06.2015 04:35 8,5 C 8,2 C 89 % 1020,8 hPa 0,0 mm 0,0 km/h (0 Bft) N-NW 337 6,8 C 0,0 km/h (0 Bft)
18.06.2015 04:40 8,2 C 8,0 C 89 % 1020,8 hPa 0,0 mm 0,0 km/h (0 Bft) NW 315 6,5 C 0,0 km/h (0 Bft)
18.06.2015 04:45 8,2 C 8,0 C 89 % 1020,8 hPa 0,0 mm 0,0 km/h (0 Bft) NW 315 6,5 C 0,0 km/h (0 Bft)
18.06.2015 04:50 8,2 C 8,0 C 89 % 1020,8 hPa 0,0 mm 0,0 km/h (0 Bft) W-SW 247 6,5 C 0,0 km/h (0 Bft)
18.06.2015 04:55 8,1 C 7,9 C 89 % 1020,4 hPa 0,0 mm 0,0 km/h (0 Bft) W-SW 247 6,4 C 0,0 km/h (0 Bft)
18.06.2015 05:00 8,1 C 7,9 C 89 % 1020,4 hPa 0,0 mm 0,0 km/h (0 Bft) S 180 6,4 C 0,0 km/h (0 Bft)
18.06.2015 05:05 8,2 C 8,0 C 89 % 1020,4 hPa 0,0 mm 0,0 km/h (0 Bft) S 180 6,5 C 0,0 km/h (0 Bft)
18.06.2015 05:10 8,1 C 8,0 C 89 % 1020,4 hPa 0,0 mm 0,0 km/h (0 Bft) S 180 6,4 C 0,0 km/h (0 Bft)
18.06.2015 05:15 8,1 C 8,0 C 89 % 1020,4 hPa 0,0 mm 0,0 km/h (0 Bft) S 180 6,4 C 0,0 km/h (0 Bft)
18.06.2015 05:20 8,0 C 7,9 C 89 % 1020,4 hPa 0,0 mm 0,0 km/h (0 Bft) S 180 6,3 C 0,0 km/h (0 Bft)
18.06.2015 05:25 8,0 C 7,9 C 89 % 1020,4 hPa 0,0 mm 0,0 km/h (0 Bft) S 180 6,3 C 0,0 km/h (0 Bft)
18.06.2015 05:30 8,0 C 7,9 C 89 % 1020,4 hPa 0,0 mm 0,0 km/h (0 Bft) S 180 6,3 C 0,0 km/h (0 Bft)
18.06.2015 05:35 8,1 C 8,0 C 89 % 1020,1 hPa 0,0 mm 0,0 km/h (0 Bft) S 180 6,4 C 0,0 km/h (0 Bft)
18.06.2015 05:40 8,0 C 7,9 C 89 % 1020,1 hPa 0,0 mm 0,0 km/h (0 Bft) S 180 6,3 C 0,0 km/h (0 Bft)
18.06.2015 05:45 8,1 C 8,0 C 89 % 1020,1 hPa 0,0 mm 0,0 km/h (0 Bft) S 180 6,4 C 0,0 km/h (0 Bft)
18.06.2015 05:50 8,3 C 8,1 C 90 % 1020,1 hPa 0,0 mm 0,0 km/h (0 Bft) S 180 6,8 C 0,0 km/h (0 Bft)
18.06.2015 05:55 8,4 C 8,2 C 90 % 1020,4 hPa 0,0 mm 0,0 km/h (0 Bft) S 180 6,9 C 0,0 km/h (0 Bft)
18.06.2015 06:00 8,5 C 8,4 C 90 % 1020,4 hPa 0,0 mm 0,0 km/h (0 Bft) W 270 7,0 C 0,0 km/h (0 Bft)
18.06.2015 06:05 8,5 C 8,4 C 87 % 1020,4 hPa 0,0 mm 0,0 km/h (0 Bft) W 270 6,5 C 0,0 km/h (0 Bft)
18.06.2015 06:10 8,6 C 8,5 C 90 % 1020,4 hPa 0,0 mm 0,3 km/h (0 Bft) NW 315 7,1 C 0,0 km/h (0 Bft)
18.06.2015 06:15 8,6 C 8,6 C 87 % 1020,3 hPa 0,0 mm 0,3 km/h (0 Bft) NW 315 6,6 C 0,0 km/h (0 Bft)
18.06.2015 06:20 8,7 C 8,8 C 87 % 1020,3 hPa 0,0 mm 0,0 km/h (0 Bft) NW 315 6,7 C 0,0 km/h (0 Bft)
18.06.2015 06:25 8,7 C 8,9 C 87 % 1020,3 hPa 0,0 mm 0,0 km/h (0 Bft) NW 315 6,7 C 0,0 km/h (0 Bft)
18.06.2015 06:30 8,8 C 9,1 C 87 % 1020,3 hPa 0,0 mm 0,0 km/h (0 Bft) NW 315 6,8 C 0,0 km/h (0 Bft)
18.06.2015 06:35 9,0 C 9,3 C 87 % 1020,4 hPa 0,0 mm 0,0 km/h (0 Bft) W-NW 292 7,0 C 0,0 km/h (0 Bft)
18.06.2015 06:40 9,1 C 9,5 C 87 % 1020,4 hPa 0,0 mm 0,0 km/h (0 Bft) S 180 7,1 C 0,0 km/h (0 Bft)
18.06.2015 06:45 9,5 C 9,7 C 87 % 1020,4 hPa 0,0 mm 2,8 km/h (1 Bft) SW 225 7,4 C 9,3 km/h (2 Bft)
18.06.2015 06:50 10,1 C 10,0 C 87 % 1020,4 hPa 0,0 mm 5,4 km/h (1 Bft) S-SW 202 8,0 C 15,3 km/h (3 Bft)
18.06.2015 06:55 10,2 C 10,3 C 87 % 1020,2 hPa 0,0 mm 4,9 km/h (1 Bft) SW 225 8,1 C 10,6 km/h (2 Bft)
18.06.2015 07:00 10,6 C 10,7 C 86 % 1020,2 hPa 0,0 mm 4,7 km/h (1 Bft) SW 225 8,4 C 8,8 km/h (2 Bft)
18.06.2015 07:05 10,8 C 10,9 C 86 % 1020,2 hPa 0,0 mm 6,2 km/h (2 Bft) SW 225 8,6 C 7,8 km/h (2 Bft)
18.06.2015 07:10 10,9 C 11,2 C 86 % 1020,2 hPa 0,0 mm 3,6 km/h (1 Bft) S-SW 202 8,7 C 0,0 km/h (0 Bft)
18.06.2015 07:15 11,1 C 11,4 C 86 % 1020,1 hPa 0,0 mm 1,8 km/h (1 Bft) W 270 8,8 C 0,0 km/h (0 Bft)
18.06.2015 07:20 11,2 C 11,9 C 85 % 1020,1 hPa 0,0 mm 1,0 km/h (0 Bft) S 180 8,8 C 2,6 km/h (1 Bft)
18.06.2015 07:25 11,4 C 12,2 C 85 % 1020,1 hPa 0,0 mm 1,0 km/h (0 Bft) S 180 9,0 C 0,0 km/h (0 Bft)
18.06.2015 07:30 11,5 C 12,7 C 85 % 1020,1 hPa 0,0 mm 0,3 km/h (0 Bft) W-NW 292 9,1 C 0,0 km/h (0 Bft)
18.06.2015 07:35 11,7 C 12,8 C 85 % 1020,0 hPa 0,0 mm 0,8 km/h (0 Bft) N-NO 22 9,3 C 4,4 km/h (1 Bft)
18.06.2015 07:40 11,7 C 12,8 C 85 % 1020,0 hPa 0,0 mm 1,3 km/h (1 Bft) NW 315 9,3 C 0,0 km/h (0 Bft)
18.06.2015 07:45 11,8 C 12,9 C 85 % 1020,0 hPa 0,0 mm 1,0 km/h (0 Bft) SW 225 9,4 C 0,0 km/h (0 Bft)
18.06.2015 07:50 12,0 C 13,2 C 84 % 1020,0 hPa 0,0 mm 0,0 km/h (0 Bft) NW 315 9,4 C 2,6 km/h (1 Bft)
18.06.2015 07:55 12,1 C 13,4 C 84 % 1020,1 hPa 0,0 mm 1,3 km/h (1 Bft) NW 315 9,5 C 4,9 km/h (1 Bft)
18.06.2015 08:00 12,2 C 13,6 C 84 % 1020,1 hPa 0,0 mm 2,1 km/h (1 Bft) N-NW 337 9,6 C 0,0 km/h (0 Bft)
18.06.2015 08:05 12,3 C 13,7 C 84 % 1020,1 hPa 0,0 mm 1,3 km/h (1 Bft) NW 315 9,7 C 0,0 km/h (0 Bft)
18.06.2015 08:10 12,5 C 14,1 C 84 % 1020,1 hPa 0,0 mm 0,0 km/h (0 Bft) N-NO 22 9,9 C 0,0 km/h (0 Bft)
18.06.2015 08:15 13,0 C 14,8 C 83 % 1020,2 hPa 0,0 mm 0,0 km/h (0 Bft) N-NW 337 10,2 C 0,0 km/h (0 Bft)
18.06.2015 08:20 13,7 C 16,8 C 82 % 1020,2 hPa 0,0 mm 1,0 km/h (0 Bft) W 270 10,7 C 6,2 km/h (2 Bft)
18.06.2015 08:25 13,9 C 17,2 C 81 % 1020,2 hPa 0,0 mm 2,1 km/h (1 Bft) W 270 10,7 C 4,9 km/h (1 Bft)
18.06.2015 08:30 14,0 C 17,1 C 80 % 1020,2 hPa 0,0 mm 2,3 km/h (1 Bft) NW 315 10,6 C 10,4 km/h (2 Bft)
18.06.2015 08:35 14,1 C 16,9 C 80 % 1020,4 hPa 0,0 mm 1,8 km/h (1 Bft) W 270 10,7 C 3,9 km/h (1 Bft)
18.06.2015 08:40 14,2 C 16,6 C 79 % 1020,4 hPa 0,0 mm 3,4 km/h (1 Bft) NW 315 10,6 C 9,1 km/h (2 Bft)
18.06.2015 08:45 14,2 C 16,4 C 78 % 1020,4 hPa 0,0 mm 4,4 km/h (1 Bft) W 270 10,4 C 6,0 km/h (2 Bft)
18.06.2015 08:50 14,2 C 16,1 C 78 % 1020,4 hPa 0,0 mm 5,7 km/h (1 Bft) NW 315 10,4 C 7,8 km/h (2 Bft)
18.06.2015 08:55 14,3 C 16,1 C 78 % 1020,8 hPa 0,0 mm 4,4 km/h (1 Bft) W 270 10,5 C 0,0 km/h (0 Bft)
18.06.2015 09:00 14,5 C 16,4 C 77 % 1020,8 hPa 0,0 mm 4,1 km/h (1 Bft) W 270 10,5 C 0,0 km/h (0 Bft)
18.06.2015 09:05 14,7 C 16,7 C 77 % 1020,8 hPa 0,0 mm 4,1 km/h (1 Bft) N-NW 337 10,7 C 8,0 km/h (2 Bft)
18.06.2015 09:10 14,7 C 16,8 C 77 % 1020,8 hPa 0,0 mm 5,2 km/h (1 Bft) W-SW 247 10,7 C 0,0 km/h (0 Bft)
18.06.2015 09:15 14,9 C 17,0 C 76 % 1020,9 hPa 0,0 mm 4,7 km/h (1 Bft) W-NW 292 10,7 C 4,7 km/h (1 Bft)
18.06.2015 09:20 14,9 C 17,1 C 76 % 1020,9 hPa 0,0 mm 2,8 km/h (1 Bft) SW 225 10,7 C 7,5 km/h (2 Bft)
18.06.2015 09:25 14,9 C 17,1 C 76 % 1020,9 hPa 0,0 mm 3,1 km/h (1 Bft) W 270 10,7 C 0,0 km/h (0 Bft)
18.06.2015 09:30 14,9 C 17,1 C 75 % 1020,9 hPa 0,0 mm 4,7 km/h (1 Bft) W-SW 247 10,5 C 15,5 km/h (3 Bft)
18.06.2015 09:35 15,2 C 17,6 C 75 % 1020,8 hPa 0,0 mm 5,4 km/h (1 Bft) W 270 10,8 C 6,7 km/h (2 Bft)
18.06.2015 09:40 15,7 C 18,5 C 75 % 1020,8 hPa 0,0 mm 5,4 km/h (1 Bft) W 270 11,3 C 9,6 km/h (2 Bft)
18.06.2015 09:45 15,9 C 18,5 C 75 % 1020,8 hPa 0,0 mm 5,2 km/h (1 Bft) NW 315 11,5 C 7,8 km/h (2 Bft)
18.06.2015 09:50 15,9 C 18,5 C 74 % 1020,8 hPa 0,0 mm 5,7 km/h (1 Bft) NW 315 11,3 C 8,3 km/h (2 Bft)
18.06.2015 09:55 16,3 C 19,0 C 73 % 1020,9 hPa 0,0 mm 5,4 km/h (1 Bft) W-NW 292 11,4 C 7,3 km/h (2 Bft)
18.06.2015 10:00 16,7 C 20,2 C 70 % 1020,9 hPa 0,0 mm 6,5 km/h (2 Bft) W 270 11,2 C 20,5 km/h (4 Bft)
18.06.2015 10:05 16,6 C 20,0 C 70 % 1020,9 hPa 0,0 mm 9,6 km/h (2 Bft) W 270 11,1 C 8,3 km/h (2 Bft)
18.06.2015 10:10 16,7 C 20,1 C 70 % 1020,9 hPa 0,0 mm 9,3 km/h (2 Bft) W-NW 292 11,2 C 24,3 km/h (4 Bft)
18.06.2015 10:15 16,7 C 19,9 C 69 % 1021,1 hPa 0,0 mm 9,3 km/h (2 Bft) N 360 11,0 C 16,1 km/h (3 Bft)
18.06.2015 10:20 16,5 C 19,2 C 69 % 1021,1 hPa 0,0 mm 9,8 km/h (2 Bft) W 270 10,8 C 4,4 km/h (1 Bft)
18.06.2015 10:25 16,4 C 18,7 C 69 % 1021,1 hPa 0,0 mm 8,3 km/h (2 Bft) S-SW 202 10,7 C 11,7 km/h (2 Bft)
18.06.2015 10:30 16,1 C 18,2 C 69 % 1021,1 hPa 0,0 mm 8,0 km/h (2 Bft) NW 315 10,4 C 15,3 km/h (3 Bft)
18.06.2015 10:35 16,0 C 17,7 C 69 % 1021,0 hPa 0,0 mm 9,1 km/h (2 Bft) NW 315 10,3 C 9,8 km/h (2 Bft)
18.06.2015 10:40 16,0 C 17,7 C 69 % 1021,0 hPa 0,0 mm 9,1 km/h (2 Bft) NW 315 10,3 C 15,0 km/h (3 Bft)
18.06.2015 10:45 16,1 C 17,6 C 69 % 1021,0 hPa 0,0 mm 8,3 km/h (2 Bft) W 270 10,4 C 14,8 km/h (3 Bft)
18.06.2015 10:50 16,1 C 17,7 C 69 % 1021,0 hPa 0,0 mm 6,7 km/h (2 Bft) W-SW 247 10,4 C 6,0 km/h (2 Bft)
18.06.2015 10:55 16,2 C 18,1 C 69 % 1020,9 hPa 0,0 mm 5,7 km/h (1 Bft) S 180 10,5 C 4,1 km/h (1 Bft)
18.06.2015 11:00 16,5 C 18,8 C 70 % 1020,9 hPa 0,0 mm 4,7 km/h (1 Bft) W-NW 292 11,0 C 4,1 km/h (1 Bft)
18.06.2015 11:05 16,5 C 19,0 C 69 % 1020,9 hPa 0,0 mm 6,0 km/h (2 Bft) W 270 10,8 C 6,7 km/h (2 Bft)
18.06.2015 11:10 16,7 C 19,5 C 69 % 1020,9 hPa 0,0 mm 8,0 km/h (2 Bft) W-NW 292 11,0 C 9,3 km/h (2 Bft)
18.06.2015 11:15 16,6 C 19,2 C 68 % 1021,1 hPa 0,0 mm 8,0 km/h (2 Bft) NW 315 10,7 C 9,3 km/h (2 Bft)
18.06.2015 11:20 16,6 C 18,9 C 68 % 1021,1 hPa 0,0 mm 9,6 km/h (2 Bft) W-SW 247 10,7 C 20,2 km/h (4 Bft)
18.06.2015 11:25 16,8 C 19,0 C 69 % 1021,1 hPa 0,0 mm 9,3 km/h (2 Bft) W 270 11,1 C 22,5 km/h (4 Bft)
18.06.2015 11:30 16,4 C 18,0 C 68 % 1021,1 hPa 0,0 mm 9,8 km/h (2 Bft) NW 315 10,5 C 17,6 km/h (3 Bft)
18.06.2015 11:35 16,1 C 16,9 C 69 % 1021,1 hPa 0,0 mm 8,3 km/h (2 Bft) W 270 10,4 C 14,0 km/h (3 Bft)
18.06.2015 11:40 15,8 C 16,2 C 70 % 1021,1 hPa 0,0 mm 7,0 km/h (2 Bft) S 180 10,3 C 0,0 km/h (0 Bft)
18.06.2015 11:45 15,9 C 16,5 C 71 % 1021,1 hPa 0,0 mm 5,7 km/h (1 Bft) W 270 10,6 C 2,6 km/h (1 Bft)
18.06.2015 11:50 16,1 C 16,7 C 71 % 1021,1 hPa 0,0 mm 3,1 km/h (1 Bft) W 270 10,8 C 4,7 km/h (1 Bft)
18.06.2015 11:55 16,0 C 16,7 C 71 % 1020,9 hPa 0,0 mm 4,1 km/h (1 Bft) W-SW 247 10,7 C 5,2 km/h (1 Bft)
18.06.2015 12:00 15,7 C 16,8 C 72 % 1020,9 hPa 0,0 mm 5,2 km/h (1 Bft) NW 315 10,7 C 4,9 km/h (1 Bft)
18.06.2015 12:05 15,7 C 16,9 C 73 % 1020,9 hPa 0,0 mm 4,4 km/h (1 Bft) W 270 10,9 C 6,2 km/h (2 Bft)
18.06.2015 12:10 15,7 C 17,5 C 73 % 1020,9 hPa 0,0 mm 4,4 km/h (1 Bft) NW 315 10,9 C 10,9 km/h (2 Bft)
18.06.2015 12:15 15,9 C 17,6 C 73 % 1020,9 hPa 0,0 mm 3,4 km/h (1 Bft) W 270 11,1 C 0,0 km/h (0 Bft)
18.06.2015 12:20 16,0 C 17,7 C 72 % 1020,9 hPa 0,0 mm 2,6 km/h (1 Bft) W-NW 292 11,0 C 6,2 km/h (2 Bft)
18.06.2015 12:25 16,0 C 17,7 C 72 % 1020,9 hPa 0,0 mm 3,1 km/h (1 Bft) W 270 11,0 C 6,7 km/h (2 Bft)
18.06.2015 12:30 15,9 C 17,0 C 73 % 1020,9 hPa 0,0 mm 4,1 km/h (1 Bft) W-NW 292 11,1 C 13,5 km/h (3 Bft)
18.06.2015 12:35 15,9 C 16,7 C 74 % 1020,6 hPa 0,0 mm 4,9 km/h (1 Bft) W-SW 247 11,3 C 6,0 km/h (2 Bft)
18.06.2015 12:40 16,0 C 16,9 C 73 % 1020,6 hPa 0,0 mm 5,2 km/h (1 Bft) SO 135 11,2 C 3,1 km/h (1 Bft)
18.06.2015 12:45 16,1 C 16,8 C 73 % 1020,6 hPa 0,0 mm 4,9 km/h (1 Bft) W 270 11,3 C 8,8 km/h (2 Bft)
18.06.2015 12:50 16,2 C 16,8 C 74 % 1020,6 hPa 0,0 mm 3,9 km/h (1 Bft) S 180 11,6 C 4,9 km/h (1 Bft)
18.06.2015 12:55 16,2 C 16,8 C 74 % 1020,6 hPa 0,0 mm 4,7 km/h (1 Bft) SW 225 11,6 C 9,8 km/h (2 Bft)
18.06.2015 13:00 15,9 C 16,3 C 75 % 1020,6 hPa 0,0 mm 5,7 km/h (1 Bft) N-NW 337 11,5 C 4,1 km/h (1 Bft)
18.06.2015 13:05 15,9 C 16,3 C 75 % 1020,6 hPa 0,0 mm 6,2 km/h (2 Bft) S 180 11,5 C 3,6 km/h (1 Bft)
18.06.2015 13:10 15,9 C 16,3 C 75 % 1020,6 hPa 0,0 mm 4,7 km/h (1 Bft) W 270 11,5 C 11,1 km/h (2 Bft)
18.06.2015 13:15 15,9 C 16,2 C 76 % 1020,5 hPa 0,0 mm 4,1 km/h (1 Bft) W-NW 292 11,7 C 9,3 km/h (2 Bft)
18.06.2015 13:20 15,9 C 16,4 C 76 % 1020,5 hPa 0,0 mm 4,4 km/h (1 Bft) W 270 11,7 C 8,5 km/h (2 Bft)
18.06.2015 13:25 15,9 C 16,4 C 76 % 1020,5 hPa 0,0 mm 3,4 km/h (1 Bft) W-NW 292 11,7 C 4,7 km/h (1 Bft)
18.06.2015 13:30 15,8 C 15,9 C 76 % 1020,5 hPa 0,0 mm 6,0 km/h (2 Bft) SW 225 11,6 C 30,3 km/h (5 Bft)
18.06.2015 13:35 15,6 C 15,6 C 75 % 1020,5 hPa 0,0 mm 5,7 km/h (1 Bft) S 180 11,2 C 2,8 km/h (1 Bft)
18.06.2015 13:40 15,5 C 15,7 C 75 % 1020,5 hPa 0,0 mm 4,4 km/h (1 Bft) O-NO 67 11,1 C 0,0 km/h (0 Bft)
18.06.2015 13:45 15,5 C 15,7 C 75 % 1020,5 hPa 0,0 mm 3,9 km/h (1 Bft) W-SW 247 11,1 C 4,1 km/h (1 Bft)
18.06.2015 13:50 15,5 C 16,0 C 75 % 1020,5 hPa 0,0 mm 3,6 km/h (1 Bft) W-NW 292 11,1 C 9,6 km/h (2 Bft)
18.06.2015 13:55 15,8 C 16,4 C 75 % 1020,3 hPa 0,0 mm 3,4 km/h (1 Bft) W 270 11,4 C 6,2 km/h (2 Bft)
18.06.2015 14:00 15,9 C 16,7 C 75 % 1020,3 hPa 0,0 mm 3,1 km/h (1 Bft) NW 315 11,5 C 4,4 km/h (1 Bft)
18.06.2015 14:05 16,0 C 16,6 C 75 % 1020,3 hPa 0,7 mm 4,1 km/h (1 Bft) NW 315 11,6 C 6,2 km/h (2 Bft)
18.06.2015 14:10 15,9 C 16,5 C 75 % 1020,3 hPa 0,0 mm 3,4 km/h (1 Bft) O-NO 67 11,5 C 2,8 km/h (1 Bft)
18.06.2015 14:15 15,8 C 16,3 C 75 % 1020,2 hPa 0,0 mm 2,6 km/h (1 Bft) NW 315 11,4 C 5,7 km/h (1 Bft)
18.06.2015 14:20 15,9 C 16,4 C 76 % 1020,2 hPa 0,0 mm 2,1 km/h (1 Bft) S 180 11,7 C 2,8 km/h (1 Bft)
18.06.2015 14:25 15,9 C 16,4 C 76 % 1020,2 hPa 0,0 mm 2,3 km/h (1 Bft) W 270 11,7 C 9,3 km/h (2 Bft)
18.06.2015 14:30 15,9 C 16,5 C 76 % 1020,2 hPa 0,0 mm 3,6 km/h (1 Bft) W 270 11,7 C 4,1 km/h (1 Bft)
18.06.2015 14:35 16,0 C 16,6 C 75 % 1019,9 hPa 0,0 mm 3,6 km/h (1 Bft) NW 315 11,6 C 7,5 km/h (2 Bft)
18.06.2015 14:40 15,9 C 16,3 C 76 % 1019,9 hPa 0,0 mm 3,1 km/h (1 Bft) NW 315 11,7 C 6,2 km/h (2 Bft)
18.06.2015 14:45 15,9 C 16,5 C 76 % 1019,9 hPa 0,0 mm 3,9 km/h (1 Bft) W 270 11,7 C 6,7 km/h (2 Bft)
18.06.2015 14:50 16,2 C 17,2 C 75 % 1019,9 hPa 0,0 mm 3,9 km/h (1 Bft) NW 315 11,8 C 8,5 km/h (2 Bft)
18.06.2015 14:55 16,5 C 18,2 C 75 % 1019,8 hPa 0,0 mm 3,9 km/h (1 Bft) W 270 12,1 C 16,3 km/h (3 Bft)
18.06.2015 15:00 16,7 C 19,0 C 73 % 1019,8 hPa 0,0 mm 5,2 km/h (1 Bft) W-NW 292 11,8 C 10,6 km/h (2 Bft)
18.06.2015 15:05 16,7 C 19,1 C 72 % 1019,8 hPa 0,0 mm 6,7 km/h (2 Bft) N-NW 337 11,6 C 7,8 km/h (2 Bft)
18.06.2015 15:10 16,7 C 19,2 C 71 % 1019,8 hPa 0,0 mm 7,5 km/h (2 Bft) NO 45 11,4 C 10,4 km/h (2 Bft)
18.06.2015 15:15 16,7 C 19,0 C 70 % 1019,6 hPa 0,0 mm 8,3 km/h (2 Bft) NW 315 11,2 C 15,8 km/h (3 Bft)
18.06.2015 15:20 16,8 C 19,5 C 70 % 1019,6 hPa 0,0 mm 8,5 km/h (2 Bft) W-NW 292 11,3 C 6,0 km/h (2 Bft)
18.06.2015 15:25 16,7 C 19,6 C 69 % 1019,6 hPa 0,0 mm 9,1 km/h (2 Bft) W-NW 292 11,0 C 11,9 km/h (2 Bft)
18.06.2015 15:30 16,8 C 19,4 C 69 % 1019,6 hPa 0,0 mm 9,3 km/h (2 Bft) W-NW 292 11,1 C 18,1 km/h (3 Bft)
18.06.2015 15:35 16,8 C 19,4 C 69 % 1019,8 hPa 0,0 mm 8,5 km/h (2 Bft) W-SW 247 11,1 C 6,0 km/h (2 Bft)
18.06.2015 15:40 17,1 C 20,2 C 70 % 1019,8 hPa 0,0 mm 7,5 km/h (2 Bft) W 270 11,6 C 19,9 km/h (4 Bft)
18.06.2015 15:45 16,9 C 20,0 C 69 % 1019,8 hPa 0,0 mm 7,3 km/h (2 Bft) NW 315 11,2 C 4,7 km/h (1 Bft)
18.06.2015 15:50 16,8 C 19,6 C 69 % 1019,8 hPa 0,0 mm 7,3 km/h (2 Bft) NW 315 11,1 C 10,9 km/h (2 Bft)
18.06.2015 15:55 16,8 C 19,4 C 69 % 1019,5 hPa 0,0 mm 6,2 km/h (2 Bft) W-SW 247 11,1 C 7,3 km/h (2 Bft)
18.06.2015 16:00 16,5 C 18,1 C 70 % 1019,5 hPa 0,0 mm 6,7 km/h (2 Bft) W-SW 247 11,0 C 11,4 km/h (2 Bft)
18.06.2015 16:05 16,5 C 17,4 C 71 % 1019,5 hPa 0,0 mm 5,2 km/h (1 Bft) NW 315 11,2 C 6,7 km/h (2 Bft)
18.06.2015 16:10 16,4 C 17,2 C 71 % 1019,5 hPa 0,0 mm 6,2 km/h (2 Bft) NW 315 11,1 C 8,0 km/h (2 Bft)
18.06.2015 16:15 16,3 C 17,6 C 72 % 1019,4 hPa 0,0 mm 6,7 km/h (2 Bft) W-NW 292 11,2 C 7,8 km/h (2 Bft)
18.06.2015 16:20 16,3 C 17,5 C 73 % 1019,4 hPa 0,0 mm 4,7 km/h (1 Bft) S-SW 202 11,4 C 9,8 km/h (2 Bft)
18.06.2015 16:25 16,1 C 17,2 C 73 % 1019,4 hPa 0,0 mm 4,9 km/h (1 Bft) W-NW 292 11,3 C 22,0 km/h (4 Bft)
18.06.2015 16:30 15,9 C 16,4 C 75 % 1019,4 hPa 0,0 mm 5,7 km/h (1 Bft) S 180 11,5 C 6,5 km/h (2 Bft)
18.06.2015 16:35 15,9 C 16,1 C 75 % 1019,4 hPa 0,0 mm 6,5 km/h (2 Bft) W-SW 247 11,5 C 8,0 km/h (2 Bft)
18.06.2015 16:40 15,3 C 15,4 C 76 % 1019,4 hPa 0,0 mm 8,3 km/h (2 Bft) W 270 11,1 C 10,6 km/h (2 Bft)
18.06.2015 16:45 15,0 C 15,2 C 76 % 1019,4 hPa 0,0 mm 8,5 km/h (2 Bft) W 270 10,8 C 14,5 km/h (3 Bft)
18.06.2015 16:50 14,7 C 14,8 C 77 % 1019,4 hPa 0,0 mm 7,5 km/h (2 Bft) S-SW 202 10,7 C 5,4 km/h (1 Bft)
18.06.2015 16:55 14,7 C 14,8 C 78 % 1019,4 hPa 0,0 mm 7,3 km/h (2 Bft) W-SW 247 10,9 C 7,8 km/h (2 Bft)
18.06.2015 17:00 14,6 C 14,7 C 79 % 1019,4 hPa 0,0 mm 7,0 km/h (2 Bft) W 270 11,0 C 17,1 km/h (3 Bft)
18.06.2015 17:05 14,5 C 14,6 C 79 % 1019,4 hPa 0,0 mm 7,5 km/h (2 Bft) SW 225 10,9 C 3,9 km/h (1 Bft)
18.06.2015 17:10 14,5 C 14,8 C 79 % 1019,4 hPa 0,0 mm 6,2 km/h (2 Bft) N 360 10,9 C 7,0 km/h (2 Bft)
18.06.2015 17:15 14,6 C 15,0 C 80 % 1019,1 hPa 0,0 mm 4,9 km/h (1 Bft) N-NO 22 11,2 C 0,0 km/h (0 Bft)
18.06.2015 17:20 14,7 C 15,3 C 80 % 1019,1 hPa 0,0 mm 4,1 km/h (1 Bft) NW 315 11,3 C 8,8 km/h (2 Bft)
18.06.2015 17:25 14,7 C 15,2 C 80 % 1019,1 hPa 0,0 mm 4,1 km/h (1 Bft) W-SW 247 11,3 C 4,1 km/h (1 Bft)
18.06.2015 17:30 14,9 C 15,3 C 80 % 1019,1 hPa 0,0 mm 4,1 km/h (1 Bft) W-SW 247 11,5 C 6,0 km/h (2 Bft)
18.06.2015 17:35 14,7 C 15,3 C 80 % 1018,8 hPa 0,0 mm 3,9 km/h (1 Bft) W-SW 247 11,3 C 2,6 km/h (1 Bft)
18.06.2015 17:40 14,7 C 15,3 C 80 % 1018,8 hPa 0,0 mm 4,4 km/h (1 Bft) W 270 11,3 C 7,8 km/h (2 Bft)
18.06.2015 17:45 14,9 C 15,5 C 80 % 1018,8 hPa 0,0 mm 4,4 km/h (1 Bft) NO 45 11,5 C 3,4 km/h (1 Bft)
18.06.2015 17:50 14,9 C 15,6 C 80 % 1018,8 hPa 0,0 mm 5,4 km/h (1 Bft) S 180 11,5 C 6,0 km/h (2 Bft)
18.06.2015 17:55 14,9 C 15,7 C 80 % 1018,6 hPa 0,0 mm 5,7 km/h (1 Bft) W-NW 292 11,5 C 11,7 km/h (2 Bft)
18.06.2015 18:00 14,9 C 15,7 C 80 % 1018,6 hPa 0,0 mm 5,2 km/h (1 Bft) W 270 11,5 C 4,4 km/h (1 Bft)
18.06.2015 18:05 14,9 C 15,8 C 80 % 1018,6 hPa 0,0 mm 5,2 km/h (1 Bft) NW 315 11,5 C 8,3 km/h (2 Bft)
18.06.2015 18:10 14,9 C 15,9 C 80 % 1018,6 hPa 0,0 mm 6,5 km/h (2 Bft) SW 225 11,5 C 11,7 km/h (2 Bft)
18.06.2015 18:15 14,9 C 15,9 C 80 % 1018,6 hPa 0,0 mm 5,4 km/h (1 Bft) W 270 11,5 C 0,0 km/h (0 Bft)
18.06.2015 18:20 14,9 C 15,9 C 80 % 1018,6 hPa 0,0 mm 3,4 km/h (1 Bft) W 270 11,5 C 4,1 km/h (1 Bft)
18.06.2015 18:25 14,9 C 15,7 C 80 % 1018,6 hPa 0,0 mm 3,1 km/h (1 Bft) W-SW 247 11,5 C 4,1 km/h (1 Bft)
18.06.2015 18:30 14,7 C 15,3 C 79 % 1018,6 hPa 0,0 mm 4,4 km/h (1 Bft) N-NW 337 11,1 C 2,6 km/h (1 Bft)
18.06.2015 18:35 14,7 C 15,2 C 79 % 1018,4 hPa 0,0 mm 3,4 km/h (1 Bft) S-SW 202 11,1 C 0,0 km/h (0 Bft)
18.06.2015 18:40 14,9 C 15,5 C 79 % 1018,4 hPa 0,0 mm 2,1 km/h (1 Bft) S-SW 202 11,3 C 4,7 km/h (1 Bft)
18.06.2015 18:45 14,9 C 15,5 C 79 % 1018,4 hPa 0,0 mm 1,8 km/h (1 Bft) W-SW 247 11,3 C 2,8 km/h (1 Bft)
18.06.2015 18:50 14,9 C 15,2 C 79 % 1018,4 hPa 0,0 mm 2,3 km/h (1 Bft) SO 135 11,3 C 0,0 km/h (0 Bft)
18.06.2015 18:55 14,7 C 14,8 C 79 % 1018,4 hPa 0,0 mm 2,1 km/h (1 Bft) W 270 11,1 C 2,8 km/h (1 Bft)
18.06.2015 19:00 14,3 C 14,1 C 79 % 1018,4 hPa 0,7 mm 1,8 km/h (1 Bft) S 180 10,7 C 5,7 km/h (1 Bft)
18.06.2015 19:05 14,0 C 13,8 C 80 % 1018,4 hPa 0,0 mm 3,4 km/h (1 Bft) W-SW 247 10,6 C 5,2 km/h (1 Bft)
18.06.2015 19:10 13,9 C 13,7 C 81 % 1018,4 hPa 0,0 mm 3,9 km/h (1 Bft) S-SW 202 10,7 C 3,9 km/h (1 Bft)
18.06.2015 19:15 13,7 C 13,5 C 81 % 1018,3 hPa 0,0 mm 2,8 km/h (1 Bft) O-SO 112 10,5 C 3,4 km/h (1 Bft)
18.06.2015 19:20 13,6 C 13,4 C 82 % 1018,3 hPa 0,7 mm 2,8 km/h (1 Bft) W-SW 247 10,6 C 6,0 km/h (2 Bft)
18.06.2015 19:25 13,5 C 13,3 C 84 % 1018,3 hPa 0,0 mm 4,1 km/h (1 Bft) NW 315 10,8 C 5,2 km/h (1 Bft)
18.06.2015 19:30 13,4 C 13,2 C 84 % 1018,3 hPa 0,7 mm 4,9 km/h (1 Bft) W-NW 292 10,8 C 3,9 km/h (1 Bft)
18.06.2015 19:35 13,3 C 13,1 C 84 % 1018,3 hPa 0,0 mm 3,9 km/h (1 Bft) W-SW 247 10,7 C 3,4 km/h (1 Bft)
18.06.2015 19:40 13,2 C 13,0 C 85 % 1018,3 hPa 0,0 mm 3,4 km/h (1 Bft) W-NW 292 10,7 C 6,2 km/h (2 Bft)
18.06.2015 19:45 13,2 C 13,0 C 85 % 1018,3 hPa 0,7 mm 2,6 km/h (1 Bft) SW 225 10,7 C 3,4 km/h (1 Bft)
18.06.2015 19:50 13,1 C 13,0 C 83 % 1018,3 hPa 0,0 mm 3,1 km/h (1 Bft) W-NW 292 10,3 C 0,0 km/h (0 Bft)
18.06.2015 19:55 13,1 C 13,0 C 83 % 1018,2 hPa 0,0 mm 2,3 km/h (1 Bft) W-SW 247 10,3 C 0,0 km/h (0 Bft)
18.06.2015 20:00 13,1 C 13,0 C 83 % 1018,2 hPa 0,0 mm 2,1 km/h (1 Bft) S 180 10,3 C 0,0 km/h (0 Bft)
18.06.2015 20:05 13,1 C 13,0 C 84 % 1018,2 hPa 0,0 mm 2,3 km/h (1 Bft) W-SW 247 10,5 C 3,1 km/h (1 Bft)
18.06.2015 20:10 13,1 C 13,1 C 84 % 1018,2 hPa 0,0 mm 1,6 km/h (1 Bft) N-NW 337 10,5 C 5,2 km/h (1 Bft)
18.06.2015 20:15 13,1 C 13,0 C 84 % 1018,1 hPa 0,0 mm 1,8 km/h (1 Bft) S 180 10,5 C 6,5 km/h (2 Bft)
18.06.2015 20:20 13,1 C 13,1 C 84 % 1018,1 hPa 0,0 mm 1,3 km/h (1 Bft) S-SO 157 10,5 C 0,0 km/h (0 Bft)
18.06.2015 20:25 13,1 C 13,1 C 84 % 1018,1 hPa 0,0 mm 1,3 km/h (1 Bft) NW 315 10,5 C 0,0 km/h (0 Bft)
18.06.2015 20:30 13,1 C 13,1 C 84 % 1018,1 hPa 0,0 mm 0,8 km/h (0 Bft) SW 225 10,5 C 0,0 km/h (0 Bft)
18.06.2015 20:35 13,1 C 13,1 C 84 % 1018,0 hPa 0,0 mm 0,5 km/h (0 Bft) S 180 10,5 C 0,0 km/h (0 Bft)
18.06.2015 20:40 13,1 C 13,0 C 84 % 1018,0 hPa 0,0 mm 1,6 km/h (1 Bft) W-SW 247 10,5 C 0,0 km/h (0 Bft)
18.06.2015 20:45 13,1 C 13,0 C 84 % 1018,0 hPa 0,0 mm 2,6 km/h (1 Bft) SW 225 10,5 C 4,7 km/h (1 Bft)
18.06.2015 20:50 13,1 C 13,0 C 87 % 1018,0 hPa 0,0 mm 2,6 km/h (1 Bft) S-SW 202 11,0 C 3,6 km/h (1 Bft)
18.06.2015 20:55 13,1 C 12,9 C 87 % 1017,9 hPa 0,0 mm 3,1 km/h (1 Bft) W-NW 292 11,0 C 3,6 km/h (1 Bft)
18.06.2015 21:00 13,1 C 12,9 C 87 % 1017,9 hPa 0,0 mm 3,1 km/h (1 Bft) W-SW 247 11,0 C 5,7 km/h (1 Bft)
18.06.2015 21:05 13,1 C 12,9 C 87 % 1017,9 hPa 0,0 mm 2,8 km/h (1 Bft) SW 225 11,0 C 3,4 km/h (1 Bft)
18.06.2015 21:10 13,1 C 12,9 C 87 % 1017,9 hPa 0,0 mm 2,1 km/h (1 Bft) W-SW 247 11,0 C 0,0 km/h (0 Bft)
18.06.2015 21:15 13,1 C 12,9 C 87 % 1017,9 hPa 0,0 mm 1,6 km/h (1 Bft) S 180 11,0 C 0,0 km/h (0 Bft)
18.06.2015 21:20 13,1 C 12,9 C 87 % 1017,9 hPa 0,0 mm 1,3 km/h (1 Bft) NW 315 11,0 C 0,0 km/h (0 Bft)
18.06.2015 21:25 13,0 C 12,9 C 87 % 1017,9 hPa 0,0 mm 1,0 km/h (0 Bft) SW 225 10,9 C 0,0 km/h (0 Bft)
18.06.2015 21:30 13,0 C 12,9 C 87 % 1017,9 hPa 0,7 mm 1,3 km/h (1 Bft) NW 315 10,9 C 2,6 km/h (1 Bft)
18.06.2015 21:35 13,0 C 12,9 C 87 % 1018,0 hPa 0,0 mm 1,6 km/h (1 Bft) S 180 10,9 C 3,1 km/h (1 Bft)
18.06.2015 21:40 13,0 C 12,9 C 87 % 1018,0 hPa 0,0 mm 1,6 km/h (1 Bft) SW 225 10,9 C 2,8 km/h (1 Bft)
18.06.2015 21:45 13,0 C 12,8 C 87 % 1018,0 hPa 0,0 mm 2,1 km/h (1 Bft) SW 225 10,9 C 3,4 km/h (1 Bft)
18.06.2015 21:50 13,0 C 12,8 C 88 % 1018,0 hPa 0,0 mm 2,1 km/h (1 Bft) W-SW 247 11,1 C 2,6 km/h (1 Bft)
18.06.2015 21:55 12,9 C 12,8 C 88 % 1018,0 hPa 0,0 mm 0,8 km/h (0 Bft) W-NW 292 11,0 C 0,0 km/h (0 Bft)
18.06.2015 22:00 12,9 C 12,7 C 88 % 1018,0 hPa 0,0 mm 0,3 km/h (0 Bft) SW 225 11,0 C 0,0 km/h (0 Bft)
18.06.2015 22:05 12,9 C 12,7 C 88 % 1018,0 hPa 0,0 mm 0,8 km/h (0 Bft) SW 225 11,0 C 0,0 km/h (0 Bft)
18.06.2015 22:10 12,9 C 12,7 C 88 % 1018,0 hPa 0,0 mm 1,6 km/h (1 Bft) W-SW 247 11,0 C 2,8 km/h (1 Bft)
18.06.2015 22:15 12,9 C 12,7 C 88 % 1017,8 hPa 0,0 mm 1,0 km/h (0 Bft) S-SW 202 11,0 C 4,1 km/h (1 Bft)
18.06.2015 22:20 12,9 C 12,7 C 88 % 1017,8 hPa 0,0 mm 0,5 km/h (0 Bft) W 270 11,0 C 7,0 km/h (2 Bft)
18.06.2015 22:25 12,9 C 12,8 C 88 % 1017,8 hPa 0,0 mm 1,6 km/h (1 Bft) O-NO 67 11,0 C 0,0 km/h (0 Bft)
18.06.2015 22:30 12,9 C 12,8 C 88 % 1017,8 hPa 0,0 mm 2,1 km/h (1 Bft) W-SW 247 11,0 C 0,0 km/h (0 Bft)
18.06.2015 22:35 13,0 C 12,9 C 88 % 1017,8 hPa 0,0 mm 1,6 km/h (1 Bft) S-SW 202 11,1 C 0,0 km/h (0 Bft)
18.06.2015 22:40 13,0 C 12,9 C 88 % 1017,8 hPa 0,0 mm 1,3 km/h (1 Bft) W 270 11,1 C 6,2 km/h (2 Bft)
18.06.2015 22:45 13,0 C 12,9 C 88 % 1017,8 hPa 0,0 mm 2,1 km/h (1 Bft) W-SW 247 11,1 C 0,0 km/h (0 Bft)
18.06.2015 22:50 13,0 C 12,9 C 88 % 1017,8 hPa 0,0 mm 1,3 km/h (1 Bft) SW 225 11,1 C 0,0 km/h (0 Bft)
18.06.2015 22:55 13,0 C 12,9 C 88 % 1017,6 hPa 0,0 mm 1,0 km/h (0 Bft) SW 225 11,1 C 0,0 km/h (0 Bft)
18.06.2015 23:00 13,0 C 13,0 C 86 % 1017,6 hPa 0,0 mm 1,0 km/h (0 Bft) W-SW 247 10,7 C 2,8 km/h (1 Bft)
18.06.2015 23:05 13,0 C 13,0 C 86 % 1017,6 hPa 0,0 mm 1,6 km/h (1 Bft) SW 225 10,7 C 4,1 km/h (1 Bft)
18.06.2015 23:10 13,0 C 12,9 C 88 % 1017,6 hPa 0,0 mm 2,8 km/h (1 Bft) W-SW 247 11,1 C 0,0 km/h (0 Bft)
18.06.2015 23:15 13,0 C 12,9 C 88 % 1017,4 hPa 0,0 mm 2,8 km/h (1 Bft) NW 315 11,1 C 6,5 km/h (2 Bft)
18.06.2015 23:20 13,0 C 12,8 C 88 % 1017,4 hPa 0,0 mm 2,6 km/h (1 Bft) SW 225 11,1 C 2,8 km/h (1 Bft)
18.06.2015 23:25 13,0 C 12,8 C 88 % 1017,4 hPa 0,0 mm 2,8 km/h (1 Bft) W 270 11,1 C 3,9 km/h (1 Bft)
18.06.2015 23:30 13,0 C 12,8 C 88 % 1017,4 hPa 0,0 mm 1,6 km/h (1 Bft) W 270 11,1 C 0,0 km/h (0 Bft)
18.06.2015 23:35 13,1 C 12,9 C 88 % 1017,4 hPa 0,0 mm 1,3 km/h (1 Bft) S 180 11,2 C 0,0 km/h (0 Bft)
18.06.2015 23:40 13,1 C 13,0 C 88 % 1017,4 hPa 0,0 mm 1,6 km/h (1 Bft) W-SW 247 11,2 C 0,0 km/h (0 Bft)
18.06.2015 23:45 13,1 C 13,0 C 88 % 1017,4 hPa 0,7 mm 1,8 km/h (1 Bft) NW 315 11,2 C 2,8 km/h (1 Bft)
18.06.2015 23:50 13,1 C 13,0 C 88 % 1017,4 hPa 0,0 mm 1,6 km/h (1 Bft) S 180 11,2 C 0,0 km/h (0 Bft)
18.06.2015 23:55 13,1 C 13,0 C 89 % 1017,4 hPa 0,0 mm 1,6 km/h (1 Bft) SW 225 11,3 C 0,0 km/h (0 Bft)
_ Min-Zeit 05:40 05:40 11:30 23:55 - 08:15 - - 05:40 23:55
Minimum _ 8,0 C 7,9 C 68 % 1017,4 hPa - 0,0 km/h (0 Bft) - - 6,3 C 0,0 km/h (0 Bft)
_ Max-Zeit 15:40 15:40 06:10 00:30 23:45 11:30 - - 14:55 13:30
Maximum _ 17,1 C 20,2 C 90 % 1022,6 hPa 0,7 mm 9,8 km/h
NW (2 Bft)
- - 12,1 C 30,3 km/h
SW (5 Bft)
Durchschnitt _ 13,0 C 13,6 C 81 % 1020,0 hPa #4,8 mm 3,0 km/h (1 Bft) W - 9,8 C 4,3 km/h (1 Bft)